[[{"header":{"parameterUnit":"m.s-1","parameterCategory":1,"la1":30.2991,"la2":30.254,"lo1":-89.0895,"lo2":-89.0444,"dy":0.0017,"dx":0.0017,"nx":28,"ny":28,"refTime":"2025-05-30T09:00:00:Z","depth":0,"parameterNumber":2,"parameterNumberName":"U-component_of_WINDS"},"data":[0,0,0,0,0,0,0,0,0,0,0,0,0,0,0,0,0,0,0,0,0,0,0,0,0,0,0,0,0,0,0,0,0,0,0,0,0,0,0,0,0,0,0,0,0,0,0,0,0,0,0,0,0,0,0,0,0,0,0.3737,0.3737,0,0.3705,0.3705,0.3704,0.3668,0.3668,0.3667,0.3667,0.3631,0.3631,0.363,0,0,0,0,0,0,0,0,0,0,0,0,0,0.3768,0.3767,0.3737,0.3737,0.3737,0.3705,0.3705,0.3704,0.3668,0.3668,0.3667,0.3667,0.3632,0.3631,0.363,0,0,0,0,0,0,0,0,0,0,0,0,0,0.3747,0.3767,0.3738,0.3715,0.3713,0.3705,0.3705,0.3704,0.3669,0.3668,0.3667,0.3666,0.3632,0.3631,0.363,0.3642,0,0,0.3628,0.3628,0,0,0,0,0,0,0,0,0.3748,0.3746,0.3719,0.3717,0.3714,0.369,0.3702,0.3683,0.3669,0.3685,0.3667,0.3666,0.3651,0.3649,0.3644,0.364,0.3638,0.3628,0.3628,0.3627,0.3627,0,0,0,0,0,0,0,0.375,0.3747,0.3725,0.3718,0.3716,0.3706,0.3703,0.3698,0.3673,0.3684,0.3681,0.3678,0.365,0.3645,0.3643,0.3638,0.3628,0.3628,0.3627,0.3627,0.3643,0.3644,0,0,0,0,0,0,0.3755,0.3748,0.3726,0.3724,0.373,0.3706,0.3702,0.3698,0.3673,0.3668,0.3679,0.3676,0.3647,0.3644,0.3642,0.3655,0.3627,0.3627,0.3626,0.3642,0.3643,0.3644,0,0,0,0,0,0,0.3755,0.3753,0.3727,0.3735,0.3731,0.3707,0.3703,0.3698,0.3694,0.3669,0.3664,0.3679,0.3646,0.3643,0.3643,0.3653,0.3626,0.3626,0.3641,0.3642,0.3643,0.368,0,0,0,0,0,0,0.3756,0.3753,0.3758,0.3736,0.3731,0.3728,0.3703,0.3698,0.3693,0.3689,0.3668,0.3663,0.3645,0.3644,0.3642,0.3652,0.3625,0.364,0.3642,0.3643,0.3678,0.3683,0.3687,0,0,0,0,0,0.3758,0.3768,0.3758,0.3755,0.3736,0.3729,0.3726,0.3706,0.3694,0.3698,0.3682,0.3664,0.3652,0.3644,0.3642,0.3651,0.3639,0.3641,0.3643,0.3676,0.3682,0.3687,0,0,0,0,0,0,0.3791,0.3765,0.3753,0.3757,0.3746,0.3723,0.3727,0.3712,0.3703,0.37,0.3675,0.367,0.3673,0.3662,0.3653,0.3662,0.3643,0.3645,0.3669,0.3674,0.3679,0.3682,0.3625,0,0,0,0,0,0.3799,0.3796,0.3773,0.3779,0.3774,0.3752,0.3748,0.3734,0.372,0.3715,0.3699,0.3687,0.368,0.3677,0.3669,0.3676,0.3672,0.3682,0.3686,0.369,0.3692,0.3696,0.3701,0.365,0.365,0.365,0,0,0.3815,0.38,0.38,0.3785,0.3775,0.3773,0.3748,0.3746,0.3744,0.3714,0.3714,0.3702,0.3686,0.369,0.3691,0.3681,0.3705,0.3692,0.3695,0.3695,0.3699,0.3704,0.3708,0.3651,0.3651,0.3651,0,0,0.3843,0.3832,0.3836,0.3827,0.3811,0.3797,0.3798,0.3778,0.3769,0.3769,0.3747,0.3744,0.3733,0.3723,0.3717,0.3744,0.3728,0.3742,0.3765,0.377,0.3774,0.3777,0.3789,0.3793,0.3744,0.3744,0.3744,0,0.3865,0.3861,0.384,0.384,0.3835,0.3809,0.3814,0.3805,0.3788,0.3785,0.3774,0.3762,0.3749,0.3751,0.3758,0.3753,0.3755,0.3745,0.3775,0.3778,0.3781,0.3792,0.3796,0.3746,0.3746,0.3746,0.3745,0,0.389,0.3887,0.3893,0.3879,0.3874,0.3876,0.3855,0.3853,0.3839,0.3826,0.3826,0.3811,0.3801,0.38,0.3785,0.38,0.3795,0.378,0.3761,0.3789,0.3798,0.3802,0.3749,0.3748,0.3748,0.3747,0,0,0.3938,0.3913,0.3916,0.391,0.3892,0.389,0.3891,0.3882,0.3882,0.3871,0.3872,0.3864,0.3851,0.3844,0.3829,0.3833,0.3858,0.3817,0.3817,0.3827,0.3875,0.3888,0.3893,0.3846,0.3847,0.3847,0.3877,0,0.3964,0.3966,0.3948,0.3955,0.3954,0.393,0.3931,0.3921,0.3909,0.3905,0.3892,0.3888,0.3869,0.3865,0.3868,0.3854,0.3867,0.3851,0.3848,0.3848,0.3854,0.3897,0.391,0.3939,0.3881,0.3881,0.3881,0,0.3995,0.3988,0.3996,0.3979,0.3978,0.398,0.3971,0.3968,0.3956,0.3947,0.394,0.3923,0.3924,0.3905,0.3907,0.3897,0.3894,0.3887,0.3888,0.3887,0.3867,0.39,0.3947,0.3952,0.3887,0.3886,0.3886,0,0.4032,0.4023,0.4028,0.4023,0.4003,0.4006,0.3998,0.3985,0.3981,0.3973,0.3971,0.3963,0.3959,0.3954,0.3935,0.3923,0.394,0.3919,0.3933,0.3934,0.3938,0.3938,0.3987,0.3934,0.3934,0.3934,0.3934,0,0.4064,0.407,0.4044,0.4047,0.4053,0.4032,0.4038,0.4028,0.4017,0.4017,0.3995,0.3996,0.3971,0.3969,0.3954,0.3959,0.3957,0.395,0.3946,0.3953,0.3954,0.3952,0.395,0.3935,0.3935,0.3935,0.3935,0,0.4106,0.4089,0.4092,0.4074,0.4069,0.4075,0.4059,0.4061,0.4048,0.4049,0.4048,0.4028,0.4025,0.4006,0.3997,0.3988,0.3998,0.3989,0.4003,0.4001,0.4016,0.4016,0.4067,0.4073,0.4015,0.4015,0.4016,0,0.4128,0.4132,0.4115,0.4115,0.4108,0.4106,0.4103,0.4083,0.4081,0.4068,0.4072,0.4067,0.4062,0.4059,0.4043,0.4037,0.4029,0.4048,0.4028,0.4035,0.4032,0.4032,0.4033,0.4052,0.4053,0.4053,0.4054,0,0.417,0.4162,0.4158,0.4153,0.415,0.4145,0.4138,0.4138,0.4115,0.4114,0.4111,0.4108,0.4101,0.4097,0.4089,0.408,0.4064,0.406,0.4063,0.4071,0.4079,0.4077,0.4016,0.4059,0.4059,0.4058,0.4058,0.4058,0.4204,0.4207,0.4197,0.4194,0.4187,0.4181,0.4183,0.4171,0.4169,0.4162,0.415,0.4149,0.4138,0.4126,0.4119,0.4119,0.4109,0.4113,0.4114,0.4116,0.412,0.4078,0.4117,0.4116,0.4116,0.4116,0.4116,0,0.4246,0.4238,0.4236,0.4228,0.4227,0.4212,0.4204,0.4204,0.4204,0.4195,0.4192,0.4189,0.4186,0.4171,0.4166,0.4169,0.4161,0.4168,0.4168,0.4167,0.4128,0.4127,0.4174,0.4174,0.4174,0.4174,0.4174,0.4174,0.4268,0.4274,0.4265,0.4267,0.4259,0.4259,0.4256,0.4252,0.4245,0.4244,0.4241,0.4232,0.4221,0.4215,0.4212,0.4208,0.4208,0.4217,0.4211,0.4175,0.417,0.4164,0.4163,0.4217,0.4217,0.425,0.425,0.425]},{"header":{"parameterUnit":"m.s-1","parameterCategory":1,"la1":30.2991,"la2":30.254,"lo1":-89.0895,"lo2":-89.0444,"dy":0.0017,"dx":0.0017,"nx":28,"ny":28,"refTime":"2025-05-30T09:00:00:Z","depth":0,"parameterNumber":3,"parameterNumberName":"V-component_of_WINDS"},"data":[0,0,0,0,0,0,0,0,0,0,0,0,0,0,0,0,0,0,0,0,0,0,0,0,0,0,0,0,0,0,0,0,0,0,0,0,0,0,0,0,0,0,0,0,0,0,0,0,0,0,0,0,0,0,0,0,0,0,-3.3285,-3.3286,0,-3.3407,-3.3408,-3.341,-3.3382,-3.3379,-3.3377,-3.3375,-3.3499,-3.3504,-3.351,0,0,0,0,0,0,0,0,0,0,0,0,0,-3.3026,-3.3031,-3.3285,-3.3286,-3.3288,-3.3407,-3.3408,-3.341,-3.3382,-3.3379,-3.3376,-3.3374,-3.3497,-3.3503,-3.351,0,0,0,0,0,0,0,0,0,0,0,0,0,-3.3142,-3.3032,-3.3284,-3.3288,-3.329,-3.3406,-3.3408,-3.3411,-3.3383,-3.3379,-3.3376,-3.3372,-3.3495,-3.3503,-3.3511,-3.3631,0,0,-3.3536,-3.354,0,0,0,0,0,0,0,0,-3.3136,-3.3152,-3.3286,-3.3288,-3.329,-3.3375,-3.3363,-3.3484,-3.3383,-3.3347,-3.3375,-3.3371,-3.3461,-3.3471,-3.3502,-3.3637,-3.3642,-3.3537,-3.3542,-3.3545,-3.3548,0,0,0,0,0,0,0,-3.3128,-3.3146,-3.3333,-3.3288,-3.329,-3.3283,-3.3296,-3.3386,-3.3422,-3.335,-3.3348,-3.3363,-3.3461,-3.3494,-3.3505,-3.3644,-3.3536,-3.3544,-3.3549,-3.3552,-3.3884,-3.3888,0,0,0,0,0,0,-3.3118,-3.314,-3.3329,-3.3337,-3.3203,-3.3291,-3.3305,-3.3352,-3.3421,-3.3428,-3.3366,-3.3362,-3.3482,-3.3495,-3.3509,-3.3654,-3.3545,-3.3553,-3.3558,-3.388,-3.3885,-3.3889,0,0,0,0,0,0,-3.3113,-3.3135,-3.3324,-3.3238,-3.3261,-3.3299,-3.3351,-3.3356,-3.3389,-3.3433,-3.3439,-3.3393,-3.348,-3.3497,-3.3601,-3.3658,-3.3557,-3.3564,-3.3875,-3.3881,-3.3887,-3.3945,0,0,0,0,0,0,-3.3105,-3.3133,-3.318,-3.3239,-3.3266,-3.3415,-3.3355,-3.3361,-3.3403,-3.3398,-3.346,-3.3467,-3.3478,-3.3589,-3.3609,-3.3667,-3.357,-3.387,-3.3878,-3.3885,-3.3938,-3.3952,-3.3964,0,0,0,0,0,-3.3096,-3.3191,-3.3182,-3.3205,-3.3325,-3.3418,-3.3433,-3.3445,-3.3408,-3.3455,-3.3483,-3.3465,-3.3649,-3.36,-3.3622,-3.3684,-3.3867,-3.3876,-3.3884,-3.3933,-3.395,-3.3964,0,0,0,0,0,0,-3.3137,-3.3199,-3.319,-3.3307,-3.3358,-3.3413,-3.3472,-3.3462,-3.3524,-3.3517,-3.3528,-3.3542,-3.3648,-3.3676,-3.3621,-3.3804,-3.3752,-3.3766,-3.3781,-3.3798,-3.381,-3.3801,-3.3577,0,0,0,0,0,-3.316,-3.3231,-3.3281,-3.3379,-3.3405,-3.3435,-3.3476,-3.348,-3.3533,-3.3554,-3.359,-3.3641,-3.371,-3.3756,-3.3822,-3.3943,-3.3955,-3.3996,-3.4009,-3.4019,-3.4031,-3.4096,-3.4115,-3.3918,-3.3918,-3.3918,0,0,-3.3207,-3.325,-3.3294,-3.3389,-3.3428,-3.3501,-3.3453,-3.3532,-3.3586,-3.3566,-3.3666,-3.3694,-3.3752,-3.3865,-3.3916,-3.3892,-3.4088,-3.403,-3.4038,-3.4044,-3.4107,-3.4126,-3.4142,-3.3924,-3.3923,-3.3922,0,0,-3.3331,-3.337,-3.3457,-3.3498,-3.3559,-3.3577,-3.3598,-3.3656,-3.3674,-3.3775,-3.3761,-3.3825,-3.3944,-3.3986,-3.4023,-3.4163,-3.4149,-3.4185,-3.4252,-3.4316,-3.4331,-3.4345,-3.4394,-3.4412,-3.4196,-3.4196,-3.4196,0,-3.3382,-3.3491,-3.3502,-3.3583,-3.3625,-3.361,-3.3697,-3.3736,-3.3816,-3.3845,-3.3817,-3.3966,-3.4004,-3.4126,-3.416,-3.4191,-3.4214,-3.4177,-3.4328,-3.4342,-3.4355,-3.4402,-3.4421,-3.42,-3.42,-3.4199,-3.4199,0,-3.3551,-3.3627,-3.369,-3.3767,-3.3816,-3.3899,-3.3922,-3.3971,-3.3971,-3.3993,-3.4095,-3.4141,-3.4216,-3.4245,-3.4246,-3.4368,-3.4351,-3.4325,-3.4274,-3.4378,-3.4422,-3.444,-3.4206,-3.4204,-3.4203,-3.4202,0,0,-3.3703,-3.3786,-3.3808,-3.3843,-3.391,-3.3968,-3.4051,-3.4125,-3.4166,-3.4221,-3.4291,-3.4392,-3.4369,-3.4411,-3.4416,-3.4473,-3.458,-3.444,-3.4442,-3.4464,-3.4716,-3.4734,-3.4755,-3.4571,-3.4575,-3.4578,-3.4711,0,-3.3832,-3.3978,-3.3991,-3.4122,-3.4192,-3.418,-3.4252,-3.43,-3.4323,-3.4386,-3.4411,-3.4482,-3.4447,-3.4472,-3.4527,-3.4555,-3.4631,-3.4546,-3.4635,-3.4638,-3.462,-3.4779,-3.4798,-3.4922,-3.4729,-3.4732,-3.4734,0,-3.4002,-3.4063,-3.4201,-3.4258,-3.4288,-3.4352,-3.4421,-3.4481,-3.4536,-3.4548,-3.4596,-3.4593,-3.4678,-3.4624,-3.4741,-3.4683,-3.472,-3.474,-3.4745,-3.4753,-3.4692,-3.479,-3.4962,-3.498,-3.4761,-3.4759,-3.4757,0,-3.4099,-3.4215,-3.4313,-3.4343,-3.4412,-3.4457,-3.4488,-3.4539,-3.4582,-3.4642,-3.4671,-3.4739,-3.4777,-3.483,-3.4847,-3.4806,-3.4963,-3.491,-3.4975,-3.4975,-3.5008,-3.5006,-3.5187,-3.5033,-3.5033,-3.5033,-3.5032,0,-3.4241,-3.4326,-3.4357,-3.4417,-3.4512,-3.4525,-3.4618,-3.4646,-3.4692,-3.4757,-3.4751,-3.4812,-3.483,-3.4894,-3.4908,-3.5002,-3.5019,-3.5032,-3.5034,-3.5032,-3.503,-3.5056,-3.5047,-3.5038,-3.5037,-3.5036,-3.5035,0,-3.4365,-3.4389,-3.4494,-3.4551,-3.4567,-3.4634,-3.4682,-3.474,-3.4762,-3.4844,-3.4864,-3.4898,-3.4974,-3.4996,-3.5086,-3.5095,-3.5206,-3.5201,-3.5187,-3.5187,-3.5251,-3.5244,-3.5454,-3.5482,-3.5311,-3.5313,-3.5314,0,-3.4454,-3.4519,-3.4582,-3.4625,-3.4658,-3.4728,-3.4772,-3.4788,-3.4834,-3.4901,-3.4951,-3.5025,-3.5086,-3.5207,-3.5239,-3.5309,-3.5305,-3.5374,-3.5315,-3.5311,-3.5305,-3.5301,-3.5307,-3.5384,-3.5386,-3.5388,-3.5389,0,-3.4609,-3.4618,-3.4682,-3.4751,-3.4804,-3.4859,-3.4912,-3.4948,-3.4971,-3.5024,-3.5101,-3.5148,-3.524,-3.5314,-3.5384,-3.5415,-3.5406,-3.5407,-3.5426,-3.5424,-3.5413,-3.5419,-3.5217,-3.5402,-3.5401,-3.54,-3.5399,-3.5399,-3.4717,-3.4775,-3.4828,-3.49,-3.4942,-3.4991,-3.5048,-3.5077,-3.5142,-3.5219,-3.5224,-3.5307,-3.536,-3.5453,-3.5488,-3.5553,-3.5533,-3.556,-3.5567,-3.5573,-3.5578,-3.5404,-3.5566,-3.5566,-3.5566,-3.5565,-3.5565,0,-3.4872,-3.4906,-3.4972,-3.5046,-3.5103,-3.509,-3.5147,-3.5195,-3.5269,-3.5319,-3.5379,-3.5468,-3.5539,-3.5578,-3.5649,-3.5694,-3.5692,-3.5712,-3.5709,-3.5716,-3.5593,-3.5569,-3.5713,-3.5713,-3.5713,-3.5713,-3.5713,-3.5713,-3.4959,-3.5054,-3.507,-3.5186,-3.5219,-3.5301,-3.5335,-3.5381,-3.5421,-3.552,-3.558,-3.5605,-3.565,-3.5725,-3.579,-3.5799,-3.5826,-3.5849,-3.5856,-3.574,-3.5724,-3.571,-3.5688,-3.5854,-3.5855,-3.5973,-3.5974,-3.5975]}]]